CZ-6A DEB, 60896

Orbit data source: Space-Track

CZ-6A DEB, 60896 is space debris in LEO originally from a launch on Tue, 06 Aug 2024 UTC launched from the Taiyaun Space Center, China (TSC). Debris objects in space refer to the collection of defunct objects orbiting the Earth. Examples of debris include non-operational satellites, rocket bodies, and fragments generated from explosions, collisions, or faulty payload assembly.

Loading next visibility...
Identifier
60896, 2024-140LB
Orbit
LEO
Country
Flag of CNCN / PRC
Related business
Manufacturer
SAST
Mission
Spacecraft
Bus & Motor
Unknown
Mass
Unknown
Launch date (UTC)
2024-08-06 (2 years ago)
Launch vehicle
Unknown
Launch site
Taiyaun Space Center, China (TSC)
Object type
Payload
Rocket body
Debris
Shape & HBR
Unknown shape, 0.1 m
Radar Cross Section
Medium (>0.1 m² and <1 m²)

Expand to show TLE details & history
Last TLE update: 14 hours ago

TLE from 14 hours ago
0 CZ-6A DEB
1 60896U 24140LB  26171.38466703  .00001007  00000-0  38062-3 0  9994
2 60896  88.3446 220.0317 0059553  70.5081 290.2534 14.29500333 95725
Epoch: 2026-06-20T09:13Z
TLE epoch observation values (Epoch: 2026-06-20T09:13:55.231Z)
Latitude
-0.00002°
Longitude
172.95151°
Altitude
781.902 km
Speed
7.47 km/s
True Right ascension
14h 40m 07s
True Declination
0° 00' 00"
Sunlit
Object was in full shadow at epoch
Visualization orbit readout
Latitude
Unknown
Longitude
Unknown
Altitude
Unknown
Speed
Unknown
Apparent Right ascension
Unknown
Apparent Declination
Unknown
Sunlit
N/A
Visualization observer readout
Local Sidereal Time
10:18:32
Azimuth
Unknown
Elevation
Unknown
Doppler factor
Unknown
Orbital elements
Apogee altitude
833.034 km
Perigee altitude
747.653 km
Semi-major axis
7,168.481 km
Eccentricity
0.00596
Inclination
88.3446°
RAAN
220.0317°
Arg. of periapsis
70.5081°
True anomaly
289.61153°
Mean anomaly
290.2534°
Eccentric anomaly
289.93263°
Mean motion
3.57604 °/min
Orbital period
100.67 mins
BSTAR
0.00038062
Loading maneuver chart data...
Computing Atmospheric mass density...
Loading historical data...
Loading historical data...
Loading historical data...
Loading historical data...
Loading historical data...
Loading historical data...
Loading historical data...

Documentation

Showing up to 5 results
|